Probability
0 0 0 0 0 0 0 0 0 0 0 0 0 0 0 0 0 0 0 0 0 0 0 0 0 0 0 0 0 0 0 0 0 0 0 0 0 0 0 0 0 0 0
0 0 0 0 0 0 0 0 0 0 0 0 0 0 0 0 0 0 0 0 0 0 0 0 0 0 0 0 0 0 0 0 0 0 0 0 0 0 0 0 0 0 0
0 0 0 0 0 0 0 0 0 0 0 0 0 0 0 0 0 0 0 0 0 0 0 0 0 0 0 0 0 0 0 0 0 0 0 0 0 0 0 0 0 0 0
0 0 0 0 0 0 0 0 0 0 0 0 0 0 0 0 0 0 0 0 0 0 0 0 0 0 0 0 0 0 0 0 0 0 0 0 0 0 0 0 0 0 0
0 0 0 0 0 0 0 0 0 0 0 0 0 0 0 0 0 0 0 0 0 0 0 0 0 0 0 0 0 0 0 0 0 0 0 0 0 0 0 0 0 0 0
0 0 0 0 0 0 0 0 0 0 0 0 0 0 0 0 0 0 0 0 0 0 0 0 0 0 0 0 0 0 0 0 0 0 0 0 0 0 0 0 0 0 0
0 0 0 0 0 0 0 0 0 0 0 0 0 0 0 0 0 0 0 0 0 0 0 0 0 0 0 0 0 0 0 0 0 0 0 0 0 0 0 0 0 0 0
0 0 0 0 0 0 0 0 0 0 0 0 0 0 0 0 0 0 0 0 0 0 0 0 0 0 0 0 0 0 0 0 0 0 0 0 0 0 0 0 0 0 0
0 0 0 0 0 0 0 0 0 0 0 0 0 0 0 0 0 0 0 0 0 0 0 0 0 0 0 0 0 0 0 0 0 0 0 0 0 0 0 0 0 0 0
0 0 0 0 0 0 0 0 0 0 0 0 0 0 0 0 0 0 0 0 0 0 0 0 0 0 0 0 0 0 0 0 0 0 0 0 0 0 0 0 0 0 0
0 0 0 0 0 0 0 0 0 0 0 0 0 0 0 0 0 0 0 0 0 0 0 0 0 0 0 0 0 0 0 0 0 0 0 0 0 0 0 0 0 0 0
0 0 0 0 0 0 0 0 0 0 0 0 0 0 0 0 0 0 0 0 0 0 0 0 0 0 0 0 0 0 0 0 0 0 0 0 0 0 0 0 0 0 0
0 0 0 0 0 0 0 0 0 0 0 0 0 0 0 0 0 0 0 0 0 0 0 0 0 0 0 0 0 0 0 0 0 0 0 0 0 0 0 0 0 0 0
0 0 0 0 0 0 0 0 0 0 0 0 0 0 0 0 0 0 0 0 0 0 0 0 0 0 0 0 0 0 0 0 0 0 0 0 0 0 0 0 0 0 0
0 0 0 0 0 0 0 0 0 0 0 0 0 0 0 0 0 0 0 0 0 0 0 0 0 0 0 0 0 0 0 0 0 0 0 0 0 0 0 0 0 0 0
0 0 0 0 0 0 0 0 0 0 0 0 0 0 0 0 0 0 0 0 0 0 0 0 0 0 0 0 0 0 0 0 0 0 0 0 0 0 0 0 0 0 0
0 0 0 0 0 0 0 0 0 0 0 0 0 0 0 0 0 0 0 0 0 0 0 0 0 0 0 0 0 0 0 0 0 0 0 0 0 0 0 0 0 0 0
0 0 0 0 0 0 0 0 0 0 0 0 0 0 0 0 0 0 0 0 0 0 0 0 0 0 0 0 0 0 0 0 0 0 0 0 0 0 0 0 0 0 0
0 0 0 0 0 0 0 0 0 0 0 0 0 0 0 0 0 0 0 0 0 0 0 0 0 0 0 0 0 0 0 0 0 0 0 0 0 0 0 0 0 0 0
0 0 0 0 0 0 0 0 0 0 0 0 0 0 0 0 0 0 0 0 0 0 0 0 0 0 0 0 0 0 0 0 0 0 0 0 0 0 0 0 0 0 0
0 0 0 0 0 0 0 0 0 0 0 0 0 0 0 0 0 0 0 0 0 0 0 0 0 0 0 0 0 0 0 0 0 0 0 0 0 0 0 0 0 0 0
0 0 0 0 0 0 0 0 0 0 0 0 0 0 0 0 0 0 0 0 0 0 0 0 0 0 0 0 0 0 0 0 0 0 0 0 0 0 0 0 0 0 0
0 0 0 0 0 0 0 0 0 0 0 0 0 0 0 0 0 0 0 0 0 0 0 0 0 0 0 0 0 0 0 0 0 0 0 0 0 0 0 0 0 0 0
0 0 0 0 0 0 0 0 0 0 0 0 0 0 0 0 0 0 0 0 0 0 0 0 0 0 0 0 0 0 0 0 0 0 0 0 0 0 0 0 0 0 0
0 0 0 0 0 0 0 0 0 0 0 0 0 0 0 0 0 0 0 0 0 0 0 0 0 0 0 0 0 0 0 0 0 0 0 0 0 0 0 0 0 0 0
0 0 0 0 0 0 0 0 0 0 0 0 0 0 0 0 0 0 0 0 0 0 0 0 0 0 0 0 0 0 0 0 0 0 0 0 0 0 0 0 0 0 0
Height
5692 5690 5689 5687 5686 5684 5683 5682 5682 5683 5684 5686 5688 5690 5693 5696 5700 5703 5707 5711 5715 5719 5723 5727 5731 5736 5740 5745 5749 5753 5757 5761 5765 5769 5772 5776 5779 5782 5784 5786 5789 5790 5792
5685 5684 5682 5681 5679 5678 5676 5676 5676 5676 5678 5679 5681 5683 5685 5689 5692 5695 5698 5702 5706 5710 5714 5718 5722 5726 5730 5735 5740 5744 5748 5752 5756 5761 5764 5768 5771 5774 5776 5779 5781 5783 5784
5679 5678 5676 5674 5673 5672 5671 5670 5670 5670 5672 5673 5675 5676 5678 5681 5685 5688 5691 5694 5697 5701 5705 5708 5713 5717 5721 5726 5731 5735 5740 5744 5748 5752 5756 5759 5763 5766 5768 5770 5773 5775 5777
5673 5672 5670 5669 5668 5667 5665 5665 5665 5665 5666 5667 5669 5670 5673 5675 5678 5681 5683 5686 5689 5692 5696 5699 5704 5708 5712 5717 5721 5726 5731 5735 5739 5743 5746 5750 5754 5757 5760 5762 5764 5766 5768
5668 5666 5665 5664 5663 5662 5661 5660 5659 5660 5660 5661 5663 5664 5666 5668 5671 5673 5675 5678 5681 5684 5687 5691 5694 5699 5703 5708 5712 5717 5721 5726 5730 5734 5738 5741 5744 5747 5750 5753 5755 5757 5758
5662 5661 5660 5659 5658 5657 5656 5655 5654 5654 5654 5655 5656 5657 5659 5661 5663 5665 5667 5670 5673 5676 5679 5682 5685 5690 5694 5699 5703 5707 5712 5716 5720 5725 5728 5731 5734 5737 5740 5743 5745 5747 5749
5657 5656 5654 5653 5652 5651 5650 5649 5649 5648 5648 5649 5649 5651 5652 5653 5655 5657 5659 5662 5665 5668 5670 5673 5676 5681 5685 5689 5693 5698 5702 5706 5710 5715 5718 5722 5724 5727 5730 5732 5735 5737 5738
5652 5650 5649 5648 5647 5646 5645 5644 5643 5642 5643 5643 5643 5644 5644 5646 5647 5649 5651 5654 5657 5659 5662 5664 5668 5672 5676 5680 5684 5688 5692 5696 5700 5704 5708 5711 5713 5716 5719 5721 5724 5726 5728
5646 5645 5644 5643 5641 5640 5639 5638 5637 5637 5637 5637 5637 5637 5637 5638 5639 5641 5643 5645 5648 5650 5653 5655 5659 5663 5666 5670 5674 5678 5682 5686 5689 5693 5697 5700 5703 5705 5708 5710 5712 5715 5716
5640 5639 5638 5637 5636 5634 5633 5632 5632 5631 5631 5630 5630 5630 5630 5631 5632 5633 5635 5637 5640 5642 5644 5647 5650 5654 5657 5661 5665 5668 5672 5675 5679 5682 5686 5688 5691 5694 5697 5699 5701 5703 5704
5633 5632 5631 5630 5629 5628 5627 5626 5625 5624 5624 5623 5623 5623 5623 5624 5625 5626 5628 5630 5631 5633 5636 5638 5641 5644 5647 5651 5654 5658 5661 5664 5667 5670 5674 5677 5679 5682 5685 5687 5689 5691 5692
5626 5625 5624 5623 5622 5622 5621 5620 5619 5618 5617 5616 5616 5616 5616 5616 5617 5618 5620 5622 5624 5625 5627 5629 5632 5635 5638 5641 5644 5646 5649 5653 5656 5659 5662 5665 5668 5670 5672 5674 5676 5678 5679
5618 5617 5617 5616 5616 5615 5614 5613 5612 5611 5610 5609 5609 5609 5609 5609 5610 5611 5612 5614 5616 5617 5619 5621 5623 5626 5628 5631 5633 5636 5639 5642 5645 5648 5651 5653 5656 5658 5660 5661 5663 5665 5666
5610 5610 5609 5609 5608 5608 5607 5607 5606 5605 5604 5603 5603 5602 5602 5602 5603 5603 5604 5606 5607 5609 5611 5613 5614 5617 5619 5621 5623 5626 5628 5631 5633 5636 5639 5641 5643 5646 5647 5649 5650 5652 5653
5602 5602 5602 5601 5601 5600 5600 5599 5599 5598 5597 5597 5596 5596 5596 5595 5596 5596 5597 5598 5599 5600 5602 5604 5605 5607 5609 5611 5613 5616 5618 5621 5623 5625 5628 5630 5631 5633 5635 5637 5638 5639 5640
5594 5594 5594 5593 5593 5592 5592 5592 5591 5591 5590 5590 5589 5589 5589 5589 5589 5589 5589 5590 5591 5592 5593 5595 5596 5597 5599 5601 5603 5606 5608 5610 5613 5615 5617 5618 5619 5621 5623 5624 5625 5626 5627
5586 5585 5585 5585 5585 5585 5584 5584 5584 5583 5583 5582 5582 5581 5581 5581 5581 5581 5581 5582 5582 5583 5584 5586 5587 5588 5589 5591 5593 5595 5597 5600 5602 5603 5605 5607 5608 5609 5610 5611 5612 5612 5612
5577 5577 5577 5577 5577 5577 5577 5576 5576 5575 5575 5575 5574 5574 5573 5573 5573 5574 5574 5574 5574 5575 5575 5576 5577 5578 5580 5581 5583 5585 5586 5588 5590 5592 5593 5595 5596 5596 5597 5598 5599 5599 5599
5569 5569 5569 5569 5569 5569 5569 5569 5568 5568 5567 5567 5566 5566 5566 5566 5565 5565 5565 5565 5566 5566 5567 5567 5568 5569 5569 5571 5573 5574 5576 5577 5579 5580 5582 5583 5583 5584 5584 5585 5586 5586 5585
5560 5560 5561 5561 5561 5561 5561 5560 5560 5560 5559 5559 5559 5558 5558 5557 5557 5557 5557 5557 5557 5558 5558 5558 5559 5559 5560 5561 5563 5564 5565 5567 5568 5569 5570 5571 5571 5571 5571 5571 5571 5572 5571
5551 5552 5552 5552 5553 5553 5552 5552 5551 5551 5551 5551 5551 5550 5550 5549 5549 5549 5549 5549 5549 5549 5549 5549 5550 5550 5551 5552 5552 5553 5554 5555 5556 5557 5558 5558 5558 5558 5558 5557 5558 5558 5557
5542 5542 5543 5543 5543 5543 5543 5543 5543 5542 5542 5542 5542 5542 5541 5541 5540 5540 5540 5539 5539 5540 5540 5540 5541 5541 5541 5541 5542 5542 5543 5544 5544 5545 5545 5545 5545 5545 5544 5544 5543 5543 5542
5532 5533 5533 5534 5534 5534 5534 5534 5534 5534 5534 5533 5533 5533 5532 5531 5531 5530 5530 5530 5530 5530 5530 5531 5531 5531 5531 5531 5531 5532 5532 5532 5532 5533 5533 5533 5532 5532 5531 5530 5529 5529 5528
5522 5523 5523 5524 5524 5524 5524 5524 5524 5525 5525 5525 5524 5524 5523 5522 5522 5521 5521 5521 5521 5521 5521 5521 5521 5521 5521 5520 5520 5520 5520 5520 5520 5520 5520 5520 5519 5519 5518 5517 5516 5515 5514
5512 5513 5514 5514 5514 5514 5515 5515 5515 5515 5515 5515 5515 5514 5514 5513 5512 5512 5511 5511 5511 5510 5511 5511 5511 5511 5511 5510 5509 5509 5509 5509 5508 5508 5508 5507 5507 5506 5505 5504 5503 5502 5501
5502 5503 5503 5504 5504 5504 5505 5505 5505 5505 5506 5506 5505 5504 5504 5503 5503 5502 5502 5501 5501 5500 5500 5500 5500 5500 5499 5499 5498 5497 5497 5497 5496 5496 5495 5495 5494 5493 5492 5491 5490 5489 5487
Wind_Speed
26 26 26 26 26 25 25 25 26 27 27 28 31 34 34 33 34 35 37 38 39 40 39 41 41 42 42 42 41 41 41 41 40 40 41 39 39 38 38 37 36 35 34
25 25 25 25 24 23 22 22 23 24 25 27 29 31 32 32 32 34 36 38 40 41 40 40 41 42 42 43 43 42 42 42 41 40 40 39 39 39 39 39 37 36 36
24 24 24 23 23 22 21 20 21 23 24 25 26 28 31 31 30 32 34 36 39 41 42 40 42 42 43 42 42 41 42 42 42 42 41 40 40 40 40 40 39 38 37
23 23 23 23 22 21 21 21 21 22 24 25 26 27 29 31 31 32 34 36 37 40 43 41 42 43 43 43 43 42 42 42 42 41 41 41 41 42 42 41 41 40 39
23 23 22 22 21 21 21 21 21 22 23 24 25 26 28 30 31 31 32 34 36 39 41 42 43 44 44 45 45 44 43 43 43 42 42 42 42 43 43 42 41 41 42
23 23 22 22 22 22 22 22 22 23 24 24 25 26 27 29 31 31 32 33 34 37 39 40 41 43 44 45 45 45 45 43 43 43 43 43 42 42 42 43 42 42 42
23 23 23 22 21 21 22 22 22 23 24 24 25 26 27 29 30 30 31 32 34 35 36 39 41 43 44 45 46 45 46 46 45 44 44 44 43 44 43 43 43 43 43
22 22 22 22 21 21 21 22 23 23 24 25 26 26 27 28 30 31 32 32 33 34 35 37 40 42 44 45 45 46 46 47 48 47 45 45 44 44 44 43 43 43 43
23 23 22 23 23 23 22 23 22 23 25 26 28 28 28 28 30 31 33 33 32 34 37 37 38 41 42 44 46 46 47 47 48 48 47 46 45 45 45 45 44 44 44
24 24 24 24 24 23 23 23 23 24 25 27 27 28 27 27 28 30 32 32 33 33 36 38 39 40 42 43 44 46 47 47 48 48 48 47 47 47 47 47 46 46 46
25 25 25 25 25 24 23 23 24 25 26 27 28 28 27 26 27 30 32 32 33 33 34 36 38 39 40 42 43 45 46 46 47 48 48 49 48 47 48 48 47 46 46
27 26 26 26 26 25 25 25 25 26 26 27 27 27 27 27 27 29 31 32 33 34 35 36 36 37 39 41 42 43 43 45 46 47 48 48 47 48 49 49 48 47 46
28 28 27 27 27 26 26 26 26 25 26 26 26 26 27 28 29 29 30 30 31 33 35 37 38 38 38 39 39 40 42 44 45 45 46 46 47 47 47 48 48 48 47
29 29 28 28 27 27 26 26 26 26 25 25 26 27 27 28 29 30 29 29 30 31 34 35 36 38 38 38 38 39 40 41 42 43 44 44 45 46 47 48 49 49 49
29 29 29 28 28 27 27 26 26 26 26 26 26 27 28 28 29 30 29 29 30 31 32 33 34 35 36 36 37 38 38 40 41 43 44 44 45 45 46 48 48 49 50
30 30 29 29 29 28 27 27 26 26 26 27 27 28 28 29 30 31 30 31 31 32 33 33 33 34 35 36 37 38 39 40 41 43 45 45 44 45 46 47 48 49 50
30 30 30 29 29 29 28 27 27 28 28 27 27 28 28 28 29 30 30 31 31 31 32 33 34 35 36 37 38 39 39 40 42 43 43 44 44 45 46 48 49 50 51
30 29 28 28 28 29 28 27 27 28 27 27 27 27 27 27 28 29 30 31 31 31 32 33 34 35 37 38 39 39 39 39 40 41 43 44 44 45 46 48 49 50 51
30 29 28 28 28 28 28 27 27 28 28 28 28 28 28 28 29 29 30 30 30 31 32 33 33 34 35 37 37 38 38 39 39 40 41 42 43 45 46 48 49 49 50
31 29 29 29 29 29 29 28 28 28 29 29 28 27 28 29 29 29 30 31 31 32 33 33 33 33 34 35 36 37 37 38 39 41 43 44 45 46 47 47 48 48 49
32 31 30 29 30 30 29 29 29 29 29 29 29 28 28 28 29 29 29 30 30 30 31 32 32 33 33 35 36 37 37 38 40 41 42 43 44 46 47 47 48 49 50
33 32 32 31 31 31 30 30 30 30 30 30 30 29 29 29 29 30 30 30 30 29 30 30 31 33 34 35 36 37 38 39 40 41 42 43 43 44 46 47 48 49 50
34 33 33 33 33 32 32 32 31 30 29 30 30 31 31 30 30 30 30 30 30 31 31 31 32 33 35 36 37 38 39 40 40 41 42 42 43 44 45 46 47 48 49
34 34 33 33 33 33 33 33 32 31 31 31 31 31 32 32 31 31 31 31 32 32 33 33 33 33 35 36 37 37 38 39 39 40 41 41 42 42 43 44 45 46 47
34 35 34 34 33 33 34 33 33 33 33 32 33 33 33 33 33 33 32 32 33 34 34 34 35 35 36 36 37 38 38 38 38 39 40 40 41 42 43 44 44 45 46
35 35 35 35 34 34 33 33 33 33 33 33 34 34 34 34 34 34 34 34 35 35 36 36 37 37 37 37 38 38 38 38 39 39 39 40 41 42 42 43 44 44 45
Wind_Direction
281 280 279 279 280 280 278 271 263 259 257 255 251 247 244 243 243 242 239 237 237 236 236 236 236 236 236 236 237 238 238 240 241 242 242 243 244 245 248 251 253 255 256
282 281 280 278 278 278 278 272 263 258 256 254 253 250 247 245 242 243 243 240 237 236 236 238 236 236 236 237 237 238 238 240 241 242 242 244 245 247 249 251 255 257 258
282 282 280 276 275 277 277 274 269 263 259 256 254 251 248 244 244 243 243 243 240 238 237 238 236 236 236 236 236 237 239 240 242 243 243 245 246 248 250 252 254 257 260
283 283 280 275 275 275 276 275 271 266 261 255 253 252 249 247 245 245 244 244 242 239 238 239 237 236 235 235 236 237 238 239 241 243 244 247 248 250 252 253 255 258 261
283 283 281 277 274 275 275 274 271 268 264 258 255 255 253 251 247 248 248 246 243 241 240 241 238 236 236 236 236 237 239 240 241 243 246 247 249 251 253 254 256 259 261
282 281 278 277 275 275 277 275 272 269 266 261 259 259 256 253 251 251 249 247 244 243 243 242 239 236 236 236 238 239 239 240 241 243 245 248 250 252 254 255 256 259 262
283 280 278 278 277 277 278 279 276 271 266 262 262 260 258 256 254 251 250 248 247 246 245 243 240 237 236 237 238 240 240 241 242 244 246 248 250 251 253 254 256 259 261
282 280 279 278 277 277 278 281 278 272 267 265 265 264 261 257 255 253 251 250 250 249 247 243 240 239 238 237 238 240 241 242 244 245 247 248 250 251 253 254 256 258 260
280 279 277 277 277 277 278 278 276 273 270 268 266 266 263 261 258 254 252 250 250 249 247 245 241 240 239 239 240 242 243 244 244 245 248 250 251 253 253 254 256 258 260
278 277 276 276 276 276 276 275 273 274 272 269 268 266 265 263 259 255 253 254 252 251 249 246 243 243 243 242 243 245 245 246 247 247 249 251 253 253 254 255 256 259 261
278 277 276 275 275 275 275 276 274 275 275 271 268 266 264 263 261 258 255 254 253 252 250 247 245 245 246 245 246 247 248 248 249 250 251 252 254 255 255 256 257 259 262
276 276 275 275 274 275 275 275 275 276 276 273 269 266 264 262 262 260 256 254 253 252 251 249 247 247 247 247 249 247 248 249 250 251 252 253 255 256 257 257 259 260 263
274 275 275 275 275 275 275 275 276 277 278 274 271 267 264 262 262 261 258 255 254 253 252 252 250 250 249 250 250 249 249 249 250 251 252 253 256 257 258 259 260 260 263
273 274 274 274 275 274 275 276 275 276 276 273 270 268 267 266 264 262 260 258 255 254 254 253 252 252 252 252 251 251 251 251 251 252 253 256 257 258 259 259 259 260 262
273 272 273 273 274 274 274 275 275 274 273 271 270 269 268 268 265 263 261 259 258 256 256 255 254 253 253 253 251 251 252 253 253 254 256 258 258 259 260 260 261 261 262
273 272 272 271 272 272 273 274 274 273 271 270 269 269 270 270 267 263 262 261 260 259 256 256 257 256 255 255 252 252 254 255 257 258 259 259 260 260 261 261 263 264 265
274 272 271 270 270 271 272 272 272 273 273 272 271 271 270 269 266 264 262 262 260 258 257 258 258 258 258 256 255 254 257 258 258 260 260 261 263 263 263 264 265 267 268
273 273 270 269 268 270 270 271 272 273 273 273 273 271 270 269 265 265 265 263 261 259 259 259 259 258 258 257 256 256 258 259 259 260 261 262 263 265 266 266 267 268 269
271 271 270 269 268 270 270 270 272 272 273 274 274 272 271 269 268 268 267 265 263 261 261 260 260 260 260 258 258 259 261 261 260 261 263 264 265 266 267 268 268 269 270
270 271 270 269 269 270 270 269 270 271 272 273 274 275 273 273 272 271 268 266 265 265 264 263 263 263 262 261 261 262 263 262 262 263 265 266 267 268 269 269 270 271 272
268 269 270 270 270 271 271 270 270 271 271 271 272 274 275 275 274 272 272 270 268 267 267 266 265 265 264 263 262 263 265 266 266 266 267 268 270 270 270 271 271 272 273
267 269 269 270 271 272 272 271 271 271 271 271 272 274 276 276 276 273 272 272 270 270 269 269 267 267 268 267 267 267 268 269 270 269 270 270 272 272 273 273 273 273 274
266 268 268 269 271 272 273 271 269 269 271 272 273 275 276 276 275 274 273 272 270 271 272 272 271 270 271 271 271 271 272 272 272 272 272 272 273 273 274 274 275 276 276
265 267 267 267 269 270 271 270 268 268 270 271 272 274 275 275 275 274 273 272 271 272 272 272 272 272 272 273 274 274 273 272 273 272 272 273 273 273 273 274 276 278 279
266 267 268 268 268 268 268 268 267 267 269 271 272 273 274 274 274 273 272 272 272 271 272 273 273 274 274 275 275 275 273 272 273 273 273 273 273 274 275 276 277 278 279
267 268 268 268 269 268 267 267 267 267 269 271 272 273 273 273 273 273 273 274 273 273 273 274 275 276 276 276 276 275 274 273 274 274 275 275 274 275 277 278 279 279 280